Regional Weather Roundup
Issued by NWS

Home | Current Version | Previous Version | Graphics & Text | Print | Product List | Glossary Off
Versions: 1 2 3 4 5 6 7 8 9 10 11 12 13 14 15 16 17 18 19 20 21 22 23 24 25 26 27 28 29 30 31 32 33 34 35 36 37 38 39 40 41 42 43 44 45 46 47 48 49 50

000
ASUS43 KDMX 241408
RWRIA

WEATHER ROUNDUP FOR IOWA
NATIONAL WEATHER SERVICE DES MOINES IA
900 AM CDT WED AUG 24 2016

NOTE: "FAIR" INDICATES FEW OR NO CLOUDS BELOW 12,000 FEET WITH NO
SIGNIFICANT WEATHER AND/OR OBSTRUCTIONS TO VISIBILITY.

* - THESE STATIONS ARE NOT NWS STATIONS...THUS NOT UNDER NWS
QUALITY CONTROL.  THEY ALSO DO NOT REPORT WEATHER SUCH
AS PRECIPITATION OR FOG.

IAZ001>003-012>014-020>022-031>034-043>046-241500-
   NORTHWEST IOWA

CITY           SKY/WX    TMP DP  RH WIND       PRES   REMARKS
CARROLL *      CLOUDY    72  70  94 W10       29.93S
CHEROKEE *     PTSUNNY   70  65  85 N8        29.96R
DENISON *      CLOUDY    70  68  94 NW7       29.93S FOG
LE MARS *      CLOUDY    68  59  73 NW5       29.98R
ORANGE CITY *  CLOUDY    64  59  82 NW7       29.97R
SHELDON *      CLOUDY    66  61  82 NW9       29.95S
SIOUX CITY     CLOUDY    68  59  73 NW7       29.98R
SPENCER        CLOUDY    69  61  75 NW10      29.95R
STORM LAKE *   CLOUDY    72  68  88 NW13      29.95S
$$

IAZ055>058-069>071-079>083-090>094-241500-
   SOUTHWEST IOWA

CITY           SKY/WX    TMP DP  RH WIND       PRES   REMARKS
ATLANTIC *     SUNNY     70  66  88 VRB5      29.96R
AUDUBON *      CLOUDY    70  66  88 CALM      29.96R
CLARINDA *       N/A     70  66  88 MISG      29.99R
COUNCIL BLFS * PTSUNNY   72  66  83 NW10      29.97R
CRESTON *      CLOUDY    70  64  83 SW7       29.98R
HARLAN  *      CLOUDY    70  68  94 NW9       29.99R FOG
LAMONI         CLOUDY    69  67  93 SW5       29.96S
RED OAK *      CLOUDY    70  64  83 W3        29.97S
SHENANDOAH *   MOSUNNY   70 -38   1 CALM      29.97S
$$

IAZ047>049-059>061-072>074-084-241500-
   CENTRAL IOWA

CITY           SKY/WX    TMP DP  RH WIND       PRES   REMARKS
AMES           SUNNY     71  68  90 SW8       29.92R
ANKENY *         N/A    N/A N/A N/A MISG        N/A
BOONE *        PTSUNNY   70  66  88 W10       29.92R
CHARITON *       N/A     72  66  83 MISG      29.95S
DES MOINES     MOSUNNY   72  65  78 SW10      29.93R
GRINNELL*      SUNNY     71  67  85 SW7       29.94S
KNOXVILLE *    SUNNY     72  66  83 SW9G15    29.94R
MARSHALLTOWN   SUNNY     72  69  90 SW8       29.91S
NEWTON *       SUNNY     72  68  88 SW10      29.94R
PERRY *        PTSUNNY   73  68  86 SW6       29.94R
$$

IAZ004>006-015-016-023>025-035-036-241500-
   NORTH CENTRAL IOWA

CITY           SKY/WX    TMP DP  RH WIND       PRES   REMARKS
ALGONA *       CLOUDY    70  68  94 NW8       29.92R
ESTHERVILLE    PTSUNNY   67  62  84 NW13      29.94R
FORT DODGE *   CLOUDY    70  64  83 W8        29.92R
MASON CITY     PTSUNNY   73  68  84 W13       29.90R
FOREST CITY *    N/A    N/A N/A N/A MISG        N/A
WEBSTER CITY * PTSUNNY   72  68  88 W13       29.90R
IOWA FALLS *     N/A     74  67  77 SW9       29.92R
$$

IAZ007>011-017>019-026>030-037>042-050>054-066-241500-
   NORTHEAST IOWA

CITY           SKY/WX    TMP DP  RH WIND       PRES   REMARKS
CEDAR RAPIDS   CLOUDY    74  74 100 VRB6      29.91R
CHARLES CITY * CLOUDY    73  73 100 S6        29.90R
CLINTON *      LGT RAIN  71  70  96 SE9       29.93F
DECORAH *      CLOUDY    68  68 100 S8        29.89F
DUBUQUE        CLOUDY    72  70  93 S7        29.93F
MONTICELLO *   CLOUDY    73  72  94 SE9       29.92R
OELWEIN *      CLOUDY    73  72  94 S8        29.92R
WATERLOO       CLOUDY    75  70  84 S9        29.89S
$$

IAZ064-065-067-068-078-241500-
   EAST CENTRAL IOWA

CITY           SKY/WX    TMP DP  RH WIND       PRES   REMARKS
DAVENPORT      CLOUDY    72  71  97 SE7       29.93S
IOWA CITY      MOSUNNY   76  72  87 S9        29.91S
MT. PLEASANT * MOSUNNY   78  74  88 SW9       29.93S
MUSCATINE *    CLOUDY    75  73  94 SE9       29.90F
QUAD CITIES    CLOUDY    74  71  91 S3        29.92F
$$

IAZ062-063-075>077-085>089-095>099-241500-
   SOUTHEAST IOWA

CITY           SKY/WX    TMP DP  RH WIND       PRES   REMARKS
BURLINGTON     MOSUNNY   77  73  87 SW7       29.92F
FAIRFIELD *    PTSUNNY   75  66  73 W8        29.93F
FORT MADISON * SUNNY     75  70  83 W6        29.94F
KEOKUK *       MOSUNNY   79  70  73 W10       29.93F HX  81
OSKALOOSA *      N/A     72  68  88 W12       29.93F
CENTERVILLE *    N/A     75  66  73 CALM      29.97S
OTTUMWA        SUNNY     74  67  78 W8        29.93S
WASHINGTON *   PTSUNNY   73  70  88 W14       29.93S
$$

ABBREVIATIONS USED IN REMARKS
   TC - TEMPERATURES IN CELSIUS
  WCI - WIND CHILL INDEX
   HX - HEAT INDEX
  VSB - VISIBILITY
$$





USA.gov is the U.S. government's official web portal to all federal, state and local government web resources and services.